Tracking 19800 objects as of 24-Jul-2019
HD Live streaming from Space Station
objects crossing your sky now

FENGYUN 1C DEB

Track FENGYUN 1C DEB now!
10-day predictions


NORAD ID: 32355
Int'l Code: 1999-025CYY
Perigee: 700.6 km
Apogee: 901.9 km
Inclination: 100.4 °
Period: 100.7 minutes
Semi major axis: 7172 km
RCS: 0.0091 m2 (small)
Launch date: May 10, 1999
Source: People's Republic of China (PRC)
Launch site: Taiyaun Space Center, China (TSC)

Note: This is SATELLITE DEBRIS
aabbcc
Your satellite tracking list
Your tracking list is empty




NASA's NSSDC Master Catalog

Two Line Element Set (TLE):
1 32355U 99025CYY 19204.07524598 +.00001200 +00000-0 +44613-3 0  9993
2 32355 100.3768 303.2465 0140309 217.3704 268.2674 14.29281787312661
Source of the keplerian elements: AFSPC